Location: Collepietra
(46.4833°N, 11.4500°E)
Time: 06:00:48
(UTC+00:00)

Daily predictions for brighter satellites

Satellite Brightness Start Highest point End
(mag) Time Altitude Azimuth Time Altitude Azimuth Time Altitude Azimuth
BREEZE-M DEB (TANK) 3.1 18:29:29 10° WSW 18:32:42 85° SSE 18:42:49 10° ENE
USA 215 4.2 18:33:58 10° E 18:39:58 40° NNE 18:45:59 10° NW
Cosmos 1992 Rocket 4.0 18:36:42 10° NNW 18:41:57 85° ENE 18:47:10 10° SSE
Helios 1A Rocket 3.2 18:38:24 10° S 18:42:29 73° WSW 18:46:37 10° NNW
Resurs 01 Rocket 2.9 18:45:48 10° ESE 18:49:23 24° ENE 18:53:00 10° N
Cosmos 1689 Rocket 3.7 18:49:02 10° N 18:51:42 37° WNW 18:54:19 10° SW
BREEZE-M DEB (TANK) 3.8 18:48:47 10° WSW 18:52:39 79° NNW 19:06:34 10° ENE
Resurs 1-3 4.1 18:49:21 10° SE 18:53:28 41° ENE 18:57:36 10° N
Cosmos 405 Rocket 3.3 18:51:11 10° N 18:55:00 40° ENE 18:58:42 10° SE
Cosmos 2237 Rocket 2.7 18:52:31 10° NNW 18:57:55 44° NE 19:03:02 11° SE
Cosmos 1408 3.1 18:54:58 10° NNW 18:58:30 60° W 19:02:00 10° S
Cosmos 2058 2.9 18:57:11 10° N 19:01:23 76° E 19:05:32 10° SSE
Cosmos 407 Rocket 4.3 18:58:58 10° SSE 19:03:20 29° E 19:07:46 10° NE
Cosmos 1892 4.4 19:05:09 10° NNW 19:08:38 35° W 19:12:06 10° SSW
Cosmos 2279 Rocket 4.2 19:02:55 10° SSE 19:08:51 52° E 19:14:51 10° NNE
Exosat Rocket 3.8 19:03:00 10° NNW 19:09:25 86° WSW 19:14:31 10° SSE
Cosmos 1356 3.5 19:06:16 10° N 19:09:38 54° ENE 19:12:45 12° SSE
FALCON 9 DEB 4.3 19:07:23 10° S 19:09:39 19° SE 19:10:44 16° ESE
OBJECT-B 1.0 19:06:37 10° S 19:09:50 73° W 19:13:05 10° NNW
BREEZE-M DEB (TANK) 4.0 19:08:09 10° WSW 19:09:53 17° SSW 19:12:11 10° SSE
Cosmos 1825 2.4 19:09:19 10° NNW 19:13:06 71° W 19:16:51 10° S
Cosmos 2227 Rocket 3.0 19:08:42 10° SSE 19:13:25 28° ESE 19:18:11 10° NE
Lacrosse 5 rocket 3.7 19:10:46 10° NW 19:13:53 20° N 19:17:07 10° NE
BREEZE-M DEB (TANK) 3.6 19:09:41 10° W 19:14:32 83° S 19:19:57 10° E
Cosmos 2084 Rocket 4.4 19:11:31 10° SSE 19:14:35 22° ESE 19:17:41 10° ENE
Cosmos 2026 Rocket 4.1 19:09:38 10° N 19:15:45 82° W 19:21:52 10° S
Cosmos 909 Rocket 4.0 19:12:20 10° SSW 19:18:41 82° ESE 19:25:09 10° NE
Cosmos 1818 3.7 19:13:36 10° SW 19:19:02 80° NW 19:24:33 10° NE
Cosmos 1140 Rocket 4.0 19:14:52 10° SSE 19:19:29 35° ESE 19:24:07 10° NE
Cosmos 2297 Rocket 2.6 19:14:55 10° S 19:20:08 40° ESE 19:25:23 10° NE
USA 186 3.7 19:20:20 10° SSW 19:23:16 29° W 19:26:05 10° NW
SJ-6B 3.5 19:20:18 10° S 19:23:55 50° W 19:27:37 10° NNW
Cosmos 44 4.1 19:21:28 10° SW 19:26:33 61° NW 19:31:55 10° NNE
Cosmos-2242 3.9 19:24:15 18° SE 19:26:38 29° E 19:30:22 10° NNE
Cosmos 2219 3.5 19:22:24 10° S 19:27:39 42° ESE 19:32:54 10° NE
Cosmos 2333 Rocket 3.8 19:23:56 10° NW 19:29:01 33° WSW 19:34:03 10° SSW
Genesis I 3.8 19:28:28 10° NNW 19:32:20 46° NE 19:34:32 23° ESE
Cosmos 2151 3.3 19:28:32 10° N 19:32:43 47° ENE 19:35:15 21° SE
Cosmos 2266 Rocket 4.4 19:27:43 10° N 19:33:51 47° ENE 19:38:12 19° SE
Cosmos 1633 2.7 19:32:40 10° N 19:36:12 51° ENE 19:37:56 26° SE
Abrixas rocket 1.5 19:35:12 10° W 19:36:36 47° NW 19:36:36 47° NW
Cosmos 1634 Rocket 4.5 19:31:27 10° SSW 19:37:40 64° WNW 19:43:51 10° N
IRIDIUM 106 4.3 19:35:01 10° S 19:40:13 75° E 19:45:27 10° N
ARIANE 5 R/B 3.7 19:41:00 22° ESE 19:42:44 29° ENE 19:46:31 10° N
Meteor 1-4 Rocket 4.3 19:44:56 17° ENE 19:44:56 17° ENE 19:46:36 10° NE
COSMOS 2455 3.6 19:40:27 15° SSE 19:44:26 29° ESE 19:49:31 10° NE
Cosmos 1076 Rocket 3.8 19:41:28 10° NNW 19:45:48 70° W 19:49:35 13° S
ATLAS 2AS CENTAUR R/B 4.2 19:38:26 10° WSW 19:45:58 45° NW 19:53:19 10° NE
USA 245 3.9 19:46:17 29° ESE 19:47:08 33° ENE 19:50:00 10° N
IGS 5A 3.4 19:47:41 24° SSE 19:50:07 78° ENE 19:54:18 10° N
CZ-2C R/B 3.8 19:47:00 10° NNE 19:51:21 50° E 19:53:53 23° SSE
Cosmos 1980 3.9 19:48:20 10° NNW 19:54:01 71° WSW 19:58:00 20° SSE
SL-16 R/B 2.8 19:48:45 10° NNW 19:54:12 44° NE 19:56:59 26° ESE
Cosmos 389 Rocket 3.4 19:52:46 10° SSW 19:56:12 49° WNW 19:59:41 10° N
Timation 2 Rocket 4.0 19:50:44 10° SSW 19:57:14 63° ESE 20:03:28 10° NNE
SL-4 R/B 2.3 19:54:25 10° SW 19:58:41 53° SE 20:03:01 11° ENE
Cosmos 1190 Rocket 3.9 19:54:36 10° S 19:59:47 69° ESE 20:05:00 10° NNE
Ariane Rocket 4.2 19:56:40 10° SSW 20:01:23 40° W 20:06:10 10° NNW
BREEZE-M (TANK) 4.3 19:43:26 10° WNW 20:02:56 60° SW 20:05:46 28° SSE
Cosmos 1812 Rocket 4.0 20:00:16 10° SSW 20:04:40 64° WNW 20:09:08 10° N
FALCON 9 DEB 3.6 20:03:19 10° SW 20:05:23 37° SSW 20:05:23 37° SSW
SPOT 1/Viking Rocket 3.5 20:04:57 30° SSE 20:07:36 72° ENE 20:12:49 10° N
FALCON 9 DEB 3.0 20:09:09 10° SW 20:11:42 60° SW 20:11:42 60° SW
SPOT 3 Rocket 4.0 20:11:35 19° S 20:15:13 59° WSW 20:20:22 10° NNW
Cosmos 2344 4.3 20:09:28 10° WSW 20:16:43 54° NW 20:24:43 10° NE
Cosmos 1655 Rocket 4.1 20:10:38 10° NNW 20:16:55 76° W 20:21:20 20° S
CARTOSAT-1 3.7 20:16:55 45° ESE 20:17:49 55° ENE 20:22:03 10° N
Cosmos 1766 Rocket 3.6 20:13:41 10° N 20:17:58 59° ENE 20:18:49 48° SE
Cosmos 676 Rocket 4.0 20:15:18 27° S 20:17:59 59° ESE 20:23:05 10° NNE
ATLAS 3B R/B 4.2 20:12:25 10° NW 20:18:29 31° WSW 20:24:24 11° S
Terra 2.7 20:20:42 32° E 20:21:34 34° ENE 20:25:50 10° N
Meteor 2-3 Rocket 3.8 20:16:27 10° NNW 20:22:13 76° W 20:25:24 27° S
USA 215 3.3 20:18:58 30° ESE 20:22:31 78° NNE 20:29:04 10° NW
Okean 3 Rocket 3.6 20:19:11 10° N 20:23:43 68° E 20:24:41 51° SE
FALCON 9 DEB 3.5 20:21:36 10° WSW 20:23:53 47° WSW 20:23:53 47° WSW
Resurs 01 Rocket 2.8 20:22:48 18° SSW 20:25:40 39° W 20:29:53 10° NNW
Meteor 1-27 4.2 20:22:43 24° S 20:26:22 81° E 20:32:13 10° NNE
SPOT 5 3.0 20:25:52 44° ESE 20:26:44 51° ENE 20:31:24 10° N
ERS-1 Rocket 3.0 20:34:05 50° SE 20:35:14 65° ENE 20:40:13 10° N
H-2A R/B 4.5 20:34:54 10° NNE 20:37:50 33° ENE 20:37:50 33° ENE
Cosmos 2237 Rocket 3.5 20:36:52 10° NW 20:41:49 32° WSW 20:44:52 19° SSW
Meteor 2-8 Rocket 4.4 20:46:52 30° SSW 20:50:05 84° W 20:56:15 10° N
Cosmos 2263 Rocket 3.5 20:51:48 24° ENE 20:51:48 24° ENE 20:54:51 10° NE
Cosmos 2084 Rocket 4.3 20:49:55 10° WSW 20:53:46 46° NW 20:57:42 10° NNE
Lacrosse 5 rocket 3.3 20:50:33 10° NW 20:54:12 26° NNE 20:56:01 20° NE
Cosmos 1869 3.8 20:55:43 51° WSW 20:56:12 55° WNW 21:00:06 10° N
Cosmos 2082 3.6 20:53:32 29° SSW 20:56:29 88° WNW 21:02:09 10° NNE
Cosmos 2227 Rocket 3.0 20:51:42 10° SW 20:57:12 50° WNW 21:02:43 10° NNE
STPSAT 2 (USA 217) 4.5 20:52:46 10° NNW 20:57:20 86° WSW 20:57:28 83° SSW
Cosmos 1741 Rocket 4.3 21:01:00 50° E 21:01:00 50° E 21:05:37 10° NNE
Cosmos 921 Rocket 4.3 20:56:52 10° N 21:00:29 31° NE 21:00:29 31° NE
Cosmos 1954 Rocket 4.4 20:58:20 20° SW 21:01:53 59° WNW 21:07:01 10° NNE
Cosmos 1842 Rocket 3.8 21:03:29 60° NE 21:03:29 60° NE 21:07:21 10° NNE
Cosmos 1850 Rocket 4.1 21:04:35 56° E 21:04:35 56° E 21:09:17 10° NNE
Cosmos 2297 Rocket 3.7 20:59:02 10° WSW 21:04:13 36° NW 21:09:27 10° NNE
Cosmos 1603 4.2 21:03:16 10° NNW 21:08:47 45° NE 21:09:37 42° E
Spot 2 Rocket 4.4 21:09:33 34° SW 21:10:57 41° W 21:15:46 10° NNW
Meteor 2-2 Rocket 4.2 21:16:20 64° S 21:17:18 89° W 21:23:02 10° N
CRYOSAT 2 4.3 21:17:15 84° WSW 21:17:19 85° W 21:22:15 10° N
Cosmos 44 Rocket 3.6 21:16:06 31° SW 21:18:29 68° NW 21:23:43 10° NNE
Cosmos 1408 Rocket 3.9 21:14:24 10° NNW 21:18:22 60° WNW 21:18:22 60° WNW
Meteor 1-4 Rocket 4.3 21:19:02 29° WNW 21:19:02 29° WNW 21:22:04 10° N
SL-08 ROCKET BODY 4.2 21:12:54 10° N 21:19:00 80° E 21:19:44 69° SE
ARIANE 5 R/B 4.0 21:18:32 29° WSW 21:19:07 31° W 21:23:02 10° NNW
USA 229 DEB 4.0 21:13:28 10° NW 21:20:44 68° NE 21:23:02 47° ESE
USA 229 4.0 21:13:34 10° NW 21:20:50 67° NE 21:23:08 46° ESE
Cosmos 1745 Rocket 3.9 21:21:08 10° N 21:27:27 66° E 21:28:01 63° ESE
Sich 1 4.4 21:24:19 10° N 21:27:04 30° NE 21:27:04 30° NE
Meteor 2-15 Rocket 4.5 21:27:31 53° SSW 21:28:57 74° W 21:35:03 10° N
Cosmos 2221 3.1 21:29:48 55° NW 21:29:48 55° NW 21:33:27 10° N
Cosmos 468 Rocket 4.4 21:24:39 10° NNW 21:29:38 52° WSW 21:29:45 52° WSW
COSMOS 2455 3.4 21:24:08 10° SW 21:30:02 56° NW 21:35:59 10° NNE
Cosmos 1709 Rocket 4.5 21:26:47 10° N 21:32:41 43° ENE 21:32:58 43° E
Cosmos 841 Rocket 3.5 21:30:06 10° NNW 21:35:03 78° N 21:35:03 78° N
Cosmos 1743 Rocket 4.2 21:32:22 10° NNW 21:35:47 53° NNW 21:35:47 53° NNW
SL-16 R/B 3.3 21:33:10 10° NW 21:38:10 32° WSW 21:38:53 31° WSW
SL-4 R/B 2.9 21:33:58 10° W 21:38:26 56° NNW 21:38:43 54° N
NOSS 3-1 (A) 4.1 21:31:15 10° NW 21:38:43 77° NE 21:41:02 52° ESE
S3M 3.9 21:40:09 72° SE 21:40:32 74° E 21:46:56 10° NNE
Cosmos 1763 Rocket 4.3 21:39:21 10° NW 21:43:55 40° W 21:43:55 40° W
Cosmos 1814 Rocket 4.1 21:43:51 10° NNW 21:48:41 70° NNE 21:48:41 70° NNE
Cosmos 2227 4.3 21:54:22 71° NE 21:54:22 71° NE 21:59:32 10° NNE
Cosmos 540 Rocket 3.9 21:49:47 10° NNW 21:54:12 55° WNW 21:54:12 55° WNW
Meteor 1-20 Rocket 4.3 21:52:51 10° N 21:58:20 69° NE 21:58:20 69° NE
Cosmos 1386 Rocket 4.3 21:53:07 10° NNW 21:59:10 76° W 21:59:17 76° WSW
Terra 3.2 21:59:35 30° W 21:59:35 30° W 22:03:31 10° NNW
NOSS 3-1 (C) 4.2 21:55:35 10° NW 22:03:02 60° WSW 22:04:16 55° SSW
Cosmos 1943 3.3 21:59:41 10° NNW 22:04:47 70° WNW 22:04:47 70° WNW
USA 215 4.0 22:06:18 36° WSW 22:06:18 36° WSW 22:11:50 10° WNW
ALOS 2 4.0 22:14:52 34° NNE 22:14:52 34° NNE 22:17:40 10° N
Cosmos 2263 Rocket 2.8 22:33:26 47° WNW 22:33:48 48° WNW 22:39:13 10° NNE
Lacrosse 5 rocket 3.3 22:29:30 10° NW 22:31:37 28° NW 22:31:37 28° NW
SeaSat 1 3.1 22:30:31 10° NNE 22:34:31 53° N 22:34:31 53° N
Iridium 4 Rocket 4.1 22:41:38 53° N 22:41:38 53° N 22:45:45 10° N
Cosmos 1844 Rocket 3.7 22:48:08 37° ENE 22:48:08 37° ENE 22:51:44 10° NE
Cosmos 2315 Rocket 4.1 22:48:28 67° WNW 22:48:28 67° WNW 22:54:46 10° N
Cosmos 2184 Rocket 4.2 22:42:08 10° N 22:48:10 60° ENE 22:48:10 60° ENE
USA 281 4.0 22:47:11 38° E 22:48:39 44° NE 22:54:48 10° NNW
Cosmos 968 Rocket 4.2 23:03:16 52° N 23:03:16 52° N 23:07:19 10° NNE
Thor Agena Rocket 4.3 23:00:22 10° NNE 23:04:04 48° NNE 23:04:04 48° NNE
Cosmos 1833 Rocket 4.5 23:06:14 10° N 23:10:54 25° NE 23:12:53 21° ENE
Cosmos 2074 Rocket 4.0 23:09:45 10° N 23:15:33 76° NNW 23:15:33 76° NNW
Cosmos 2278 Rocket 3.9 23:33:50 22° E 23:33:50 22° E 23:37:06 10° NE
Cosmos 1610 Rocket 4.5 23:27:19 10° N 23:33:07 77° N 23:33:07 77° N
Nadezhda 1 Rocket 4.0 23:40:22 83° N 23:40:22 83° N 23:46:30 10° N
ATLAS 5 CENTAUR R/B 3.1 23:39:30 10° NNW 23:44:44 46° NE 23:46:48 34° E
